Temp
59 57 56 57 58 57 57 58 57 57 56 54 54 53 51 49 48 48 48 48 47 48
59 57 57 56 56 56 57 56 54 57 56 55 54 53 51 51 48 48 48 46 46 47
57 58 58 56 55 55 56 57 55 55 55 54 53 51 50 50 49 48 46 46 46 45
58 58 57 56 56 56 56 56 56 56 55 54 53 52 50 50 49 47 46 45 46 44
58 57 56 56 56 56 55 55 55 55 55 54 53 53 51 50 49 47 46 44 44 43
56 55 54 55 55 55 55 54 54 53 52 52 51 51 51 50 48 47 46 45 44 42
54 54 54 55 54 53 53 51 50 49 49 48 48 48 48 46 45 45 44 43 43 43
53 53 53 52 51 51 51 50 47 45 44 44 45 46 44 44 43 43 42 42 42 41
49 50 49 49 48 48 46 46 45 44 44 43 44 45 45 44 42 41 40 39 40 41
47 46 46 47 46 45 44 44 44 44 44 42 42 45 44 42 39 38 37 38 38 40
45 44 45 45 44 44 44 43 42 42 42 42 43 45 44 42 39 38 39 38 38 38
44 43 43 42 42 42 41 40 40 40 40 40 41 43 42 41 39 37 36 38 38 37
42 42 41 40 40 40 40 38 39 38 39 42 40 42 42 40 38 35 36 36 38 41
40 39 39 38 38 37 36 36 35 35 37 38 39 40 42 42 38 36 34 35 36 37
MSLP
1013.11 1013.78 1014.37 1014.77 1015.37 1015.91 1016.30 1016.05 1016.95 1017.33 1017.66 1018.09 1018.73 1019.38 1019.79 1020.34 1020.71 1021.17 1021.52 1021.95 1022.01 1022.43
1012.49 1013.21 1013.79 1014.49 1014.99 1015.68 1016.05 1016.20 1016.62 1017.39 1017.76 1017.97 1018.39 1019.12 1019.75 1020.26 1020.71 1021.03 1021.63 1022.28 1022.58 1022.60
1011.57 1012.00 1013.01 1013.80 1014.47 1015.16 1015.69 1016.05 1016.47 1017.21 1017.70 1017.94 1018.48 1019.15 1019.53 1020.12 1020.74 1021.11 1021.79 1022.55 1022.92 1023.21
1011.15 1011.80 1012.45 1012.95 1013.63 1014.45 1015.20 1015.71 1016.24 1016.79 1017.29 1017.74 1018.26 1019.02 1019.50 1019.93 1020.45 1021.29 1021.93 1022.40 1023.25 1023.74
1010.63 1011.41 1011.94 1012.40 1012.82 1013.59 1014.28 1015.12 1015.80 1016.45 1017.04 1017.68 1018.34 1018.87 1019.28 1019.59 1020.41 1021.28 1021.87 1022.78 1023.63 1024.21
1010.32 1010.84 1011.37 1011.73 1012.41 1012.69 1013.70 1014.71 1015.81 1016.48 1017.01 1018.16 1019.54 1020.67 1020.89 1020.73 1021.13 1021.69 1022.15 1022.87 1023.95 1024.42
1010.21 1010.58 1011.03 1011.53 1012.13 1012.67 1013.51 1014.47 1015.52 1016.42 1017.58 1018.67 1019.38 1020.78 1022.07 1022.33 1022.57 1023.14 1023.61 1023.58 1024.69 1025.12
1010.19 1010.56 1011.00 1011.41 1012.09 1012.91 1013.55 1014.13 1014.72 1015.21 1017.33 1018.09 1018.89 1021.02 1021.97 1023.02 1023.58 1023.99 1023.84 1024.85 1025.68 1025.77
1010.32 1010.66 1011.14 1011.62 1012.17 1012.84 1013.63 1014.43 1015.36 1015.72 1015.95 1017.36 1017.98 1018.14 1020.47 1022.26 1023.89 1024.08 1023.91 1025.29 1025.92 1026.37
1010.62 1010.90 1011.27 1011.74 1012.28 1012.98 1013.77 1014.49 1015.23 1015.94 1016.57 1017.89 1018.57 1019.37 1020.85 1021.84 1022.34 1023.59 1024.36 1025.65 1025.95 1026.19
1010.81 1011.16 1011.66 1012.11 1012.61 1013.18 1013.74 1014.39 1015.03 1016.01 1016.89 1017.91 1019.24 1019.93 1020.65 1022.38 1023.09 1023.75 1024.49 1025.16 1026.27 1027.03
1011.07 1011.41 1011.84 1012.29 1012.85 1013.43 1014.01 1014.85 1015.41 1016.10 1017.14 1018.41 1019.43 1020.26 1021.50 1022.60 1023.29 1023.85 1024.33 1025.48 1026.07 1026.94
1011.32 1011.76 1012.26 1012.82 1013.36 1013.98 1014.54 1015.11 1015.92 1016.85 1017.56 1018.47 1019.47 1020.75 1021.49 1022.53 1023.41 1024.34 1025.16 1026.16 1026.45 1026.56
1011.99 1012.38 1012.82 1013.28 1013.86 1014.48 1015.18 1015.85 1016.61 1017.44 1018.59 1019.21 1019.90 1021.02 1021.95 1022.69 1023.68 1024.77 1025.69 1025.85 1026.25 1026.44
Wind_Speed
12 8 8 10 9 9 9 9 8 10 10 11 10 8 7 5 5 6 5 8 5 4
13 13 12 11 8 7 7 5 7 9 10 10 10 10 9 7 6 7 5 5 5 5
14 16 13 11 12 10 8 8 9 9 10 10 9 9 9 8 7 8 5 5 6 5
12 13 12 12 12 12 9 10 11 11 11 11 12 11 10 10 10 10 8 7 8 6
13 13 13 14 14 14 13 12 13 12 10 11 10 11 12 13 11 12 11 8 8 7
12 13 13 13 13 15 14 13 11 9 10 7 5 3 3 6 9 8 10 9 9 8
10 12 11 11 11 12 12 12 12 10 9 9 11 9 6 8 9 8 7 8 7 5
8 8 8 9 10 10 13 14 17 20 16 15 13 8 10 8 8 8 10 8 7 6
6 8 9 10 11 12 13 14 15 16 17 17 12 30 25 15 9 9 11 9 8 7
7 8 9 11 13 14 15 15 15 15 15 14 14 27 25 23 13 12 11 9 8 7
7 9 9 11 12 12 13 15 15 14 15 15 13 25 25 20 11 10 10 9 8 7
7 9 11 12 12 11 12 12 12 14 15 14 13 22 23 16 10 10 10 8 9 9
6 8 9 9 10 8 10 12 11 12 12 19 15 22 22 16 8 10 8 7 8 15
6 7 9 10 10 11 12 12 13 15 12 14 15 16 19 16 8 8 7 8 6 5
Wind_Direction
193 191 192 189 190 198 202 191 185 190 179 170 165 164 154 150 143 143 140 146 135 133
190 192 193 194 189 193 193 180 165 190 185 172 164 161 154 152 141 139 129 133 128 115
196 190 189 182 186 191 189 180 171 180 178 164 164 158 152 141 138 129 119 124 117 97
195 197 189 185 182 185 179 180 181 183 178 170 165 162 151 150 144 135 133 124 128 108
188 190 189 194 185 180 181 184 186 184 177 169 170 168 164 154 148 147 136 124 118 119
188 183 193 192 190 182 179 178 174 176 158 134 102 83 92 113 125 123 123 123 129 123
188 189 196 189 185 175 165 151 133 116 98 100 90 76 66 81 84 83 81 82 87 101
179 190 181 172 162 160 158 150 142 134 121 118 108 118 105 99 110 116 99 79 78 79
148 152 154 149 147 144 143 145 146 141 137 143 137 139 134 130 119 111 99 107 98 89
150 148 154 153 151 149 149 147 149 144 141 143 135 142 144 136 136 140 140 143 135 134
150 145 146 150 153 152 153 152 147 142 135 132 143 149 148 147 138 133 136 130 136 135
157 153 154 154 151 147 140 138 137 131 129 129 139 143 147 143 137 133 127 142 141 147
141 147 145 140 139 134 132 127 125 117 119 134 136 149 147 140 137 130 131 136 144 149
121 124 128 124 126 127 124 116 114 109 110 116 125 139 145 140 131 138 146 144 145 143